Weather History for Ithaca, NY

Change the Weather History Date:

Friday, November 25, 2011

  Actual Average Record
Temperature  
Mean Temperature 46 °F -  
Max Temperature 59 °F 42 °F 64 °F (1979)
Min Temperature 34 °F 26 °F 5 °F (1938)
Degree Days  
Heating Degree Days 18    
Moisture  
Dew Point 33 °F    
Average Humidity 63    
Maximum Humidity 89    
Minimum Humidity 42    
Precipitation  
Precipitation 0.00 in - - ()
Sea Level Pressure  
Sea Level Pressure 30.12 in    
Wind  
Wind Speed 7 mph (South)    
Max Wind Speed 13 mph    
Max Gust Speed -    
Visibility 10 miles    
Events      
Averages and records for this station are not official NWS values.
T = Trace of Precipitation, MM = Missing Value Source: NWS Daily Summary

Daily Weather History Graph

Daily Weather History Graph

Search for Another Location

Airport:

Trip Planner

Search our weather history database for the weather conditions in past years. The results will help you decide how hot, cold, wet, or windy it might be!

Date:

Astronomy

Nov. 25, 2011 Rise Set
Actual Time 7:08 AM EST 4:36 PM EST
Civil Twilight 6:37 AM EST 5:07 PM EST
Nautical Twilight 6:03 AM EST 5:42 PM EST
Astronomical Twilight 5:29 AM EST 6:15 PM EST
Moon 7:35 AM EST 5:00 PM EST
Length of Visible Light 10h 29m
Length of Day
9h 27m
New Moon, 0% of the Moon is Illuminated
Nov 25
New Moon
Dec 2
First Quarter
Dec 10
Full
Dec 17
Last Quarter
Dec 24
New

Hourly Weather History & Observations

Time (EST) Temp. Windchill Dew Point Humidity Pressure Visibility Wind Dir Wind Speed Gust Speed Precip Events Conditions
12:56 AM 36.0 °F 31.1 °F 31.1 °F 82% 30.15 in 10.0 mi SSW 5.8 mph - N/A   Clear
1:56 AM 37.9 °F 33.5 °F 32.0 °F 79% 30.15 in 10.0 mi South 5.8 mph - N/A   Clear
2:56 AM 34.9 °F 29.9 °F 31.1 °F 86% 30.14 in 10.0 mi SSE 5.8 mph - N/A   Clear
3:56 AM 34.0 °F 29.8 °F 31.1 °F 89% 30.15 in 10.0 mi SE 4.6 mph - N/A   Clear
4:56 AM 34.0 °F 28.0 °F 30.0 °F 85% 30.15 in 10.0 mi South 6.9 mph - N/A   Clear
5:56 AM 34.9 °F 30.8 °F 31.1 °F 86% 30.15 in 10.0 mi SSE 4.6 mph - N/A   Clear
6:56 AM 34.9 °F 32.0 °F 31.1 °F 86% 30.16 in 10.0 mi SSE 3.5 mph - N/A   Clear
7:56 AM 36.9 °F 30.7 °F 32.0 °F 83% 30.16 in 10.0 mi South 8.1 mph - N/A   Clear
8:56 AM 41.9 °F 36.9 °F 32.9 °F 70% 30.16 in 10.0 mi South 8.1 mph - N/A   Clear
9:56 AM 45.9 °F 40.8 °F 34.0 °F 63% 30.16 in 10.0 mi SSE 10.4 mph - N/A   Clear
10:56 AM 50.9 °F - 34.9 °F 54% 30.15 in 10.0 mi South 6.9 mph - N/A   Clear
11:56 AM 54.9 °F - 36.0 °F 49% 30.12 in 10.0 mi SW 9.2 mph - N/A   Clear
1:56 PM 59.0 °F - 36.9 °F 44% 30.08 in 10.0 mi SW 11.5 mph - N/A   Clear
2:56 PM 59.0 °F - 36.0 °F 42% 30.07 in 10.0 mi SSW 10.4 mph - N/A   Clear
3:56 PM 54.9 °F - 34.9 °F 47% 30.08 in 10.0 mi SSW 8.1 mph - N/A   Clear
4:56 PM 52.0 °F - 34.9 °F 52% 30.09 in 10.0 mi SSW 6.9 mph - N/A   Clear
5:56 PM 52.0 °F - 32.9 °F 48% 30.09 in 10.0 mi SSW 11.5 mph - N/A   Clear
6:56 PM 50.9 °F - 32.9 °F 50% 30.09 in 10.0 mi SSW 12.7 mph - N/A   Clear
7:56 PM 50.0 °F - 32.0 °F 50% 30.10 in 10.0 mi SSW 9.2 mph - N/A   Clear
8:56 PM 47.8 °F - 31.1 °F 52% 30.11 in 10.0 mi South 9.2 mph - N/A   Clear
9:56 PM 47.8 °F - 31.1 °F 52% 30.11 in 10.0 mi South 10.4 mph - N/A   Clear
10:56 PM 47.8 °F - 30.0 °F 50% 30.11 in 10.0 mi South 8.1 mph - N/A   Clear
11:56 PM 47.8 °F - 31.1 °F 52% 30.12 in 10.0 mi South 8.1 mph - N/A   Clear